Temperature
9 8 8 8 8 7 7 7 7 7 7 6 6 6 6 6 6 5 5 5 5 5 4 4 5 5 4 4 4 4 4 4 4 5 5 5 6 6 6 6 6 6 7
8 8 7 7 7 7 7 6 6 6 6 6 6 6 5 5 5 5 5 4 4 4 4 4 4 4 4 4 4 4 4 4 4 4 4 5 5 5 5 5 6 6 6
7 7 7 7 6 6 6 6 6 5 5 5 5 5 5 5 4 4 4 4 4 3 3 3 3 3 3 3 3 3 3 3 3 3 3 4 4 5 5 5 5 5 5
7 6 6 6 6 5 5 5 5 5 5 5 4 4 4 4 4 3 3 3 3 3 3 3 3 3 3 3 3 3 3 3 3 3 3 3 3 4 4 4 4 5 5
6 6 6 5 5 5 5 4 4 4 4 4 4 3 3 3 3 3 3 3 2 2 3 3 3 2 2 2 2 2 2 2 2 2 2 2 3 3 3 3 3 4 4
6 5 5 5 4 4 4 4 4 3 3 3 3 3 3 3 2 2 2 2 2 2 2 2 2 2 2 2 2 2 1 1 1 2 2 2 2 2 2 2 2 3 3
5 5 4 4 4 4 3 3 3 3 3 3 3 2 2 2 2 2 1 1 1 1 1 1 1 2 1 1 1 1 1 1 1 1 1 2 2 2 2 2 2 2 2
4 4 3 3 3 3 3 3 2 2 2 2 2 2 2 2 2 1 1 1 1 1 1 1 1 1 1 1 1 1 1 1 1 1 1 1 1 2 1 2 2 2 2
3 3 3 2 2 2 2 2 2 2 2 2 1 1 1 1 1 1 0 0 0 0 0 0 0 0 0 0 0 0 1 1 1 1 1 1 1 1 1 1 1 1 1
3 2 2 2 2 1 1 1 1 1 1 1 1 1 0 0 0 -0 -0 -1 -1 -0 -0 -0 -0 -1 -0 -0 -0 -0 0 0 0 1 1 1 1 1 1 1 1 1 1
2 2 1 1 1 1 1 1 0 0 0 0 0 -0 -0 -0 -1 -1 -1 -1 -1 -1 -1 -1 -1 -1 -1 -1 -1 -1 -1 -0 -0 -0 0 0 1 1 1 1 1 0 0
1 1 1 1 0 0 0 -0 -0 -0 -0 -0 -1 -1 -1 -1 -1 -1 -2 -2 -2 -2 -2 -2 -1 -1 -1 -1 -1 -1 -1 -1 -1 -0 -0 -0 -0 0 0 0 0 -0 -0
1 0 0 -0 -0 -0 -1 -1 -1 -1 -1 -1 -2 -2 -2 -2 -2 -2 -2 -2 -2 -2 -2 -2 -2 -2 -2 -2 -2 -2 -1 -1 -1 -1 -1 -1 -1 -1 -1 -1 -0 -0 -0
0 -0 -0 -1 -1 -1 -1 -1 -2 -2 -2 -3 -3 -3 -3 -3 -3 -3 -3 -3 -3 -3 -3 -3 -2 -2 -2 -2 -2 -2 -2 -2 -2 -1 -1 -1 -1 -1 -1 -1 -1 -1 -1
-1 -1 -1 -1 -1 -2 -2 -2 -3 -3 -3 -3 -4 -4 -4 -4 -3 -3 -3 -3 -3 -3 -3 -3 -3 -3 -3 -2 -2 -2 -2 -2 -2 -2 -2 -2 -2 -2 -2 -2 -2 -2 -2
-1 -2 -2 -2 -2 -2 -3 -3 -3 -3 -3 -4 -4 -4 -4 -4 -4 -4 -4 -4 -4 -4 -3 -4 -3 -3 -3 -3 -3 -3 -3 -3 -3 -2 -2 -2 -2 -2 -2 -2 -2 -2 -2
-2 -2 -2 -3 -3 -3 -3 -4 -4 -3 -3 -4 -4 -4 -4 -4 -4 -4 -4 -4 -4 -4 -4 -4 -4 -4 -4 -4 -4 -4 -4 -4 -3 -3 -3 -3 -3 -3 -3 -3 -3 -3 -3
-3 -3 -3 -3 -3 -4 -4 -4 -5 -4 -4 -4 -4 -4 -4 -4 -4 -4 -5 -4 -4 -4 -4 -4 -4 -4 -4 -4 -4 -4 -4 -4 -4 -4 -4 -3 -3 -3 -3 -3 -3 -3 -3
-3 -3 -3 -4 -4 -4 -5 -5 -5 -5 -5 -5 -5 -5 -5 -5 -5 -5 -5 -5 -5 -5 -5 -5 -5 -5 -4 -4 -4 -4 -4 -4 -4 -4 -4 -4 -4 -4 -4 -4 -4 -4 -3
-3 -4 -4 -4 -4 -5 -5 -5 -6 -6 -6 -6 -6 -6 -5 -5 -5 -5 -5 -5 -5 -5 -5 -5 -5 -5 -5 -5 -5 -5 -5 -5 -5 -4 -4 -4 -4 -4 -4 -4 -4 -4 -4
-4 -4 -4 -5 -5 -5 -5 -6 -6 -6 -6 -6 -6 -6 -6 -6 -6 -6 -6 -6 -6 -6 -5 -5 -5 -5 -5 -5 -5 -5 -5 -5 -5 -5 -5 -4 -4 -4 -4 -4 -4 -4 -4
-4 -5 -5 -5 -5 -6 -6 -6 -6 -6 -7 -7 -6 -6 -6 -7 -6 -6 -6 -6 -6 -6 -6 -6 -6 -5 -5 -5 -5 -5 -5 -5 -5 -5 -5 -5 -5 -5 -4 -5 -5 -5 -5
-5 -5 -5 -5 -6 -6 -6 -6 -6 -7 -7 -7 -7 -7 -7 -7 -7 -7 -6 -6 -6 -6 -6 -6 -6 -5 -5 -5 -5 -5 -5 -5 -5 -5 -5 -5 -5 -5 -5 -5 -5 -5 -5
-5 -6 -6 -6 -6 -6 -7 -7 -7 -7 -7 -7 -7 -7 -7 -7 -7 -7 -7 -7 -6 -6 -6 -6 -6 -5 -5 -5 -5 -5 -5 -5 -5 -5 -5 -5 -5 -5 -5 -5 -5 -5 -5
-6 -6 -6 -7 -7 -7 -7 -7 -7 -7 -7 -7 -7 -7 -7 -7 -7 -7 -7 -7 -6 -6 -6 -6 -6 -6 -5 -5 -5 -5 -5 -5 -5 -5 -5 -5 -5 -5 -5 -5 -5 -5 -5
-6 -7 -7 -7 -7 -7 -8 -7 -7 -7 -7 -7 -7 -7 -7 -7 -7 -7 -7 -7 -7 -6 -6 -6 -6 -6 -6 -6 -5 -5 -5 -5 -5 -5 -5 -5 -5 -5 -5 -5 -5 -5 -5
Wind_Speed
0 1 1 2 2 2 2 3 3 4 4 5 5 5 5 6 6 6 6 6 7 7 6 7 8 7 6 6 6 6 7 7 11 9 6 5 6 7 7 7 7 7 8
0 1 1 2 2 2 3 3 3 4 4 4 5 5 6 6 6 6 7 7 7 7 7 7 8 7 8 7 6 7 8 8 9 12 8 5 6 7 6 6 5 6 6
1 1 2 2 3 3 3 4 4 4 4 4 4 5 5 6 6 6 7 7 7 7 7 8 8 8 9 7 8 8 7 8 7 9 9 6 5 4 5 5 5 4 5
1 1 2 3 3 3 4 4 4 4 5 5 5 6 6 6 6 6 6 6 7 8 8 8 8 9 10 9 9 8 8 7 7 8 8 6 5 4 3 4 5 4 5
1 2 3 3 3 3 4 4 4 5 5 6 6 6 6 6 6 6 6 7 7 7 7 7 8 10 12 10 9 7 7 7 6 7 7 6 5 4 4 4 6 4 5
1 2 3 3 4 4 4 5 5 5 6 6 6 6 7 7 9 11 9 7 7 7 8 8 9 10 11 13 13 12 10 9 8 8 7 7 8 6 5 4 4 4 4
2 3 3 3 4 5 5 5 6 6 6 7 6 6 7 8 11 12 11 7 7 7 7 8 8 9 10 9 11 12 11 12 12 10 10 9 8 6 5 5 5 5 6
2 3 3 4 4 5 5 6 6 6 6 6 7 7 7 9 11 11 11 7 7 7 7 8 8 9 9 9 8 8 9 9 9 8 9 9 7 6 6 7 6 4 3
3 3 4 4 4 5 6 6 6 6 6 6 6 6 6 8 10 10 10 5 6 7 8 8 8 9 12 12 9 9 9 8 8 10 10 9 9 8 6 3 3 2 4
3 4 4 4 4 5 6 6 5 5 6 6 6 5 6 7 9 10 9 4 6 6 7 7 10 10 12 12 8 8 9 8 6 7 7 7 5 5 6 5 5 4 3
3 3 3 4 4 5 5 5 5 6 5 5 6 6 5 7 9 10 10 5 6 6 7 6 7 11 13 12 10 8 9 8 6 5 5 4 3 3 3 2 2 3 3
2 3 4 4 4 4 5 5 5 5 5 5 5 5 4 5 7 9 10 10 9 7 7 6 7 10 11 11 9 9 10 8 4 3 3 4 3 2 2 2 1 1 2
2 3 4 4 4 4 4 5 5 4 4 5 5 6 6 5 6 10 11 11 10 7 6 8 10 10 10 7 8 9 7 4 3 3 3 3 3 2 1 0 1 1 2
2 4 4 4 4 4 4 4 4 4 5 5 6 6 6 6 5 5 5 6 7 6 5 7 9 9 7 7 7 6 4 3 3 3 3 2 2 1 1 1 0 1 2
3 3 4 4 4 4 4 4 5 4 5 6 5 5 6 7 8 12 8 5 4 5 5 3 3 4 4 4 4 4 3 3 3 2 2 2 1 1 1 0 0 0 1
3 3 3 3 3 4 4 5 7 7 10 11 10 9 8 10 13 12 10 9 9 8 5 3 3 4 4 4 4 4 3 3 3 2 2 1 1 1 0 1 1 1 1
3 3 3 3 3 4 4 5 6 8 10 10 11 11 10 11 11 10 9 9 8 7 3 3 4 4 4 3 3 3 3 3 3 2 2 2 1 0 0 1 1 1 1
3 4 3 3 3 3 4 4 5 6 7 7 8 11 11 11 11 10 9 7 5 5 3 3 4 4 4 3 3 3 3 3 3 2 2 2 1 0 0 0 1 1 2
3 3 3 3 3 3 3 4 4 5 5 6 6 8 11 11 11 11 9 4 4 4 4 4 4 4 3 3 3 3 3 3 3 2 2 2 1 0 0 0 1 2 2
3 5 4 3 3 3 3 3 4 4 5 5 6 6 7 7 5 6 6 4 4 4 4 4 4 3 3 3 3 3 2 2 2 2 2 2 1 0 1 1 1 2 1
3 3 5 4 2 3 3 3 4 4 4 5 5 7 9 5 5 5 5 5 5 5 5 4 4 3 3 3 3 3 3 2 2 2 2 1 1 0 0 1 1 2 2
2 2 2 2 3 3 3 3 3 4 4 5 5 7 10 6 5 5 5 5 5 4 4 4 4 3 3 3 3 3 3 3 2 2 1 1 1 0 1 2 2 2 3
2 2 3 3 2 4 4 3 3 4 4 5 5 5 5 5 5 5 5 5 5 5 4 4 3 3 3 3 3 3 3 3 3 2 1 1 1 1 1 2 3 3 3
2 2 3 3 3 2 3 3 3 4 4 5 5 5 5 5 5 6 6 5 5 5 5 4 3 4 5 4 3 3 3 3 2 2 2 2 2 2 2 2 3 3 3
2 2 2 2 2 3 3 3 3 4 4 4 4 5 5 5 5 5 5 5 5 5 6 5 4 4 5 5 4 4 4 4 3 1 1 1 2 2 2 3 3 3 3
2 2 2 2 2 2 3 3 3 4 4 4 4 5 5 5 5 5 5 5 5 5 5 5 5 5 5 4 4 5 5 4 3 2 1 2 2 2 3 3 4 4 4
Wind_Direction
322 334 344 322 310 305 299 293 287 287 282 270 264 264 261 257 253 247 249 250 253 260 264 267 270 265 263 263 263 261 258 257 269 278 266 271 263 263 267 258 256 254 253
326 1 341 328 327 325 313 306 303 298 295 288 279 273 269 266 258 250 254 256 253 259 264 267 273 275 266 264 260 260 261 256 261 276 280 272 267 265 262 261 267 266 262
20 13 346 334 327 314 306 304 304 300 298 296 292 283 278 274 268 258 254 255 253 253 258 262 270 275 269 267 264 263 264 265 259 270 277 271 272 280 277 274 271 267 272
26 4 336 319 309 305 303 303 302 300 299 297 294 290 283 278 270 267 265 261 259 258 256 257 261 267 268 266 266 264 266 266 264 267 273 276 276 279 271 270 277 269 272
8 337 317 314 314 309 309 307 305 303 301 298 300 298 293 285 274 275 269 267 266 268 267 263 264 270 275 272 272 270 266 266 268 268 270 274 271 278 268 264 270 274 274
335 308 315 324 323 315 309 308 308 305 301 299 296 294 292 291 295 292 286 271 270 270 275 277 275 271 279 279 279 279 271 267 269 265 263 267 265 263 262 261 264 277 276
321 315 321 322 324 319 315 315 308 306 302 297 292 288 286 288 297 296 292 282 272 269 271 278 284 282 285 276 277 278 270 268 264 262 262 261 263 261 257 255 256 262 265
315 313 316 320 318 319 317 311 307 301 296 292 289 285 285 293 299 298 299 288 274 270 270 270 274 277 277 284 280 275 270 268 265 262 257 258 261 258 248 250 253 268 294
306 303 309 315 317 320 318 313 308 303 298 293 287 284 284 291 298 299 300 284 281 279 277 276 276 274 282 289 284 276 277 278 279 275 275 275 275 273 264 250 245 257 281
294 302 312 316 317 315 311 309 308 302 297 299 297 287 283 288 296 299 299 284 286 286 283 280 281 284 288 290 280 274 275 280 283 286 285 285 276 269 263 238 225 236 266
305 317 319 319 313 308 310 313 316 315 311 309 303 296 285 288 295 298 299 292 286 287 287 286 283 290 292 292 292 281 280 286 277 272 275 275 268 259 259 263 248 230 237
317 318 317 316 318 325 323 320 320 321 322 316 309 307 300 295 302 299 299 296 295 284 283 284 285 294 297 299 299 297 299 298 275 266 270 269 270 273 274 273 275 294 275
327 319 317 320 321 322 319 319 323 326 324 321 317 313 313 310 304 308 307 304 302 295 289 296 299 301 304 303 302 306 307 294 282 273 266 269 269 260 251 258 45 48 30
313 312 315 319 321 323 321 320 321 323 321 319 317 314 314 313 311 306 298 300 304 302 300 305 312 314 309 307 311 313 308 297 288 279 279 277 267 241 228 234 234 93 47
307 310 314 317 315 315 317 312 312 301 304 310 305 303 309 310 313 317 316 309 302 298 310 312 312 315 316 317 319 316 318 325 323 313 296 298 289 271 293 352 113 64 102
309 311 310 312 314 315 316 320 319 319 320 320 318 314 310 313 318 323 323 321 319 318 322 316 313 312 308 307 310 319 328 326 323 319 309 298 273 247 323 44 81 103 109
294 298 302 308 310 313 317 320 321 326 328 328 330 329 328 329 332 335 335 333 331 330 325 312 309 308 308 311 313 317 321 322 323 323 321 317 311 309 125 116 120 110 109
294 296 302 294 296 302 306 309 310 315 322 326 330 337 339 339 341 341 342 345 341 342 328 312 309 309 314 319 319 323 325 327 332 332 332 328 321 356 66 127 156 143 131
297 296 292 290 295 300 304 308 309 311 315 320 326 332 337 338 342 347 348 347 330 327 324 316 312 313 316 319 321 322 323 322 326 329 323 318 316 9 125 143 155 142 120
298 304 310 304 302 309 312 312 314 315 318 321 324 326 329 336 342 342 345 339 330 323 321 318 316 319 320 322 323 322 323 321 321 320 316 316 314 299 149 151 155 145 129
302 305 315 318 312 311 309 308 309 311 314 316 317 323 332 334 332 333 334 332 325 321 318 317 319 322 321 320 317 316 317 312 309 307 307 313 322 317 148 147 147 136 127
305 307 310 308 310 309 308 307 309 311 315 317 321 327 334 339 332 329 327 324 321 319 315 314 316 316 312 309 306 304 303 302 300 299 295 294 300 243 156 140 131 131 132
310 310 312 311 308 311 320 321 318 317 317 318 320 323 329 331 331 329 327 325 324 325 325 323 319 318 318 315 306 294 284 285 284 269 247 237 220 188 158 149 147 143 141
306 302 301 307 313 314 313 315 316 315 317 318 320 322 324 326 328 327 327 326 328 328 328 327 324 321 319 322 321 314 299 293 292 269 216 190 183 169 157 146 146 150 149
312 308 306 306 307 310 311 312 315 316 317 318 322 325 326 327 327 327 328 328 328 331 333 333 333 334 334 329 325 321 319 326 331 344 133 157 163 164 155 144 139 135 131
315 311 313 311 307 306 307 309 312 315 315 317 320 322 323 324 325 327 330 332 334 337 336 337 339 337 333 337 335 338 345 352 358 6 78 144 150 147 142 136 134 133 131
Height
1436 1435 1434 1433 1432 1431 1430 1428 1427 1426 1425 1424 1423 1422 1421 1419 1418 1417 1416 1415 1414 1413 1413 1412 1410 1409 1408 1407 1407 1406 1405 1404 1400 1396 1397 1396 1395 1395 1394 1394 1394 1393 1393
1433 1432 1431 1430 1428 1427 1425 1424 1423 1421 1420 1419 1417 1416 1414 1413 1412 1410 1410 1409 1408 1406 1406 1405 1403 1402 1401 1400 1399 1398 1398 1397 1395 1390 1389 1389 1388 1388 1387 1387 1386 1386 1386
1429 1428 1427 1426 1424 1422 1421 1419 1418 1416 1415 1413 1411 1409 1408 1406 1405 1404 1403 1402 1401 1400 1399 1398 1397 1395 1394 1393 1392 1391 1390 1389 1388 1386 1383 1382 1381 1381 1380 1379 1379 1379 1379
1426 1425 1423 1422 1420 1418 1416 1415 1413 1411 1409 1407 1405 1404 1402 1400 1399 1398 1397 1396 1395 1393 1392 1391 1390 1389 1387 1386 1385 1384 1383 1382 1381 1379 1377 1375 1374 1374 1373 1372 1371 1371 1371
1423 1422 1420 1418 1416 1414 1412 1410 1408 1406 1404 1401 1399 1398 1396 1394 1393 1392 1391 1389 1388 1387 1385 1384 1383 1382 1381 1380 1378 1377 1376 1375 1374 1372 1371 1369 1368 1367 1366 1366 1365 1364 1364
1420 1418 1416 1414 1412 1409 1407 1405 1402 1400 1398 1396 1394 1392 1390 1388 1387 1385 1384 1383 1381 1380 1378 1377 1376 1375 1374 1373 1372 1371 1370 1369 1367 1366 1364 1363 1361 1361 1361 1361 1360 1358 1357
1416 1415 1413 1410 1408 1405 1403 1400 1397 1394 1392 1390 1388 1386 1384 1382 1380 1379 1378 1376 1375 1373 1372 1371 1369 1368 1367 1365 1364 1363 1362 1361 1361 1360 1358 1356 1356 1356 1356 1355 1354 1353 1352
1413 1411 1409 1407 1404 1401 1398 1396 1393 1390 1387 1384 1382 1380 1378 1376 1374 1373 1371 1370 1369 1367 1366 1364 1363 1361 1360 1359 1357 1355 1354 1353 1353 1352 1351 1350 1350 1350 1350 1350 1349 1347 1346
1410 1408 1406 1403 1400 1397 1394 1391 1388 1385 1382 1379 1376 1374 1372 1370 1368 1367 1366 1364 1363 1361 1360 1358 1357 1355 1354 1353 1351 1348 1346 1345 1345 1345 1344 1344 1343 1344 1344 1344 1342 1341 1339
1407 1404 1402 1400 1397 1394 1390 1387 1384 1381 1377 1374 1372 1370 1367 1365 1363 1362 1361 1359 1357 1355 1354 1352 1351 1349 1348 1346 1345 1342 1340 1338 1338 1337 1337 1337 1337 1337 1338 1338 1337 1336 1335
1403 1401 1398 1396 1393 1390 1387 1383 1380 1376 1373 1370 1367 1365 1363 1361 1358 1357 1356 1355 1353 1350 1348 1346 1345 1343 1342 1340 1339 1337 1335 1334 1332 1332 1331 1331 1331 1331 1331 1331 1331 1331 1331
1399 1397 1395 1392 1389 1386 1383 1379 1376 1372 1369 1366 1363 1360 1358 1356 1354 1352 1351 1350 1348 1346 1343 1341 1339 1338 1336 1335 1333 1332 1330 1329 1327 1326 1326 1325 1325 1324 1325 1325 1326 1326 1326
1395 1393 1391 1388 1385 1383 1379 1376 1372 1369 1366 1362 1359 1356 1354 1352 1350 1348 1346 1345 1343 1341 1339 1336 1335 1333 1332 1330 1328 1327 1325 1324 1323 1322 1321 1320 1320 1320 1320 1320 1321 1321 1322
1392 1390 1387 1385 1382 1379 1376 1373 1370 1366 1363 1360 1357 1354 1351 1348 1346 1344 1342 1340 1339 1336 1334 1332 1330 1328 1327 1325 1324 1323 1321 1320 1319 1318 1317 1317 1317 1316 1316 1317 1317 1317 1317
1389 1387 1384 1381 1379 1376 1373 1370 1367 1364 1362 1359 1355 1352 1349 1345 1343 1342 1339 1337 1335 1333 1331 1328 1326 1324 1323 1321 1320 1319 1318 1317 1316 1315 1314 1313 1313 1313 1313 1314 1314 1314 1314
1385 1383 1381 1378 1376 1373 1370 1367 1364 1362 1359 1356 1353 1350 1347 1344 1341 1338 1336 1334 1332 1330 1328 1325 1323 1322 1320 1318 1317 1316 1315 1314 1314 1313 1312 1311 1311 1311 1311 1311 1312 1312 1312
1382 1380 1378 1375 1373 1370 1367 1364 1360 1358 1356 1353 1350 1347 1344 1341 1338 1335 1333 1330 1328 1326 1324 1323 1321 1319 1318 1316 1315 1314 1313 1312 1312 1311 1310 1309 1309 1309 1309 1309 1310 1310 1311
1379 1377 1375 1372 1370 1367 1365 1362 1359 1355 1352 1349 1347 1344 1341 1338 1336 1333 1331 1328 1326 1324 1322 1321 1319 1318 1316 1315 1314 1312 1311 1311 1310 1309 1308 1308 1308 1308 1308 1308 1308 1309 1309
1376 1373 1371 1369 1367 1364 1362 1359 1356 1354 1351 1347 1344 1342 1339 1336 1333 1331 1328 1326 1324 1322 1321 1319 1318 1316 1315 1314 1312 1311 1310 1309 1309 1308 1307 1307 1307 1307 1307 1307 1308 1308 1309
1372 1370 1368 1366 1364 1362 1359 1357 1354 1352 1349 1346 1343 1340 1337 1334 1331 1329 1327 1325 1323 1321 1320 1318 1317 1315 1314 1313 1311 1310 1309 1308 1307 1307 1306 1306 1306 1306 1306 1306 1307 1307 1308
1369 1367 1365 1363 1361 1359 1357 1355 1353 1350 1348 1345 1342 1340 1337 1334 1331 1328 1326 1324 1322 1320 1319 1317 1315 1314 1313 1311 1310 1309 1308 1307 1306 1306 1305 1305 1305 1305 1305 1305 1306 1306 1307
1367 1365 1363 1361 1359 1357 1355 1353 1351 1349 1346 1344 1341 1339 1336 1333 1331 1328 1326 1324 1322 1320 1318 1316 1315 1313 1312 1310 1309 1308 1307 1306 1305 1305 1304 1304 1304 1304 1304 1304 1305 1306 1306
1364 1362 1360 1359 1357 1355 1353 1352 1350 1347 1345 1343 1340 1337 1335 1332 1330 1328 1326 1323 1321 1319 1318 1316 1314 1312 1311 1310 1309 1307 1306 1305 1304 1304 1303 1303 1303 1303 1303 1304 1304 1305 1306
1361 1360 1358 1356 1355 1353 1351 1350 1348 1346 1344 1342 1339 1337 1334 1332 1330 1327 1325 1323 1321 1319 1317 1315 1313 1312 1310 1309 1308 1307 1306 1305 1304 1303 1303 1302 1302 1302 1303 1304 1304 1305 1306
1359 1357 1356 1354 1353 1351 1350 1348 1346 1344 1342 1340 1338 1336 1334 1332 1329 1327 1325 1323 1321 1319 1317 1315 1313 1312 1310 1309 1307 1306 1305 1304 1303 1303 1302 1302 1302 1302 1303 1303 1304 1305 1306
1357 1355 1353 1352 1350 1349 1348 1346 1344 1343 1341 1339 1337 1335 1333 1331 1329 1327 1324 1322 1320 1318 1317 1315 1313 1312 1310 1308 1307 1306 1305 1304 1303 1303 1302 1302 1302 1302 1303 1304 1305 1306 1307